Change the Weather History Date:

Sunday, August 24, 2014

  Actual Average Record
Temperature  
Mean Temperature 58 °F -  
Max Temperature 60 °F 73 °F 84 °F (1998)
Min Temperature 56 °F 59 °F 51 °F (1997)
Degree Days  
Heating Degree Days 7    
Growing Degree Days 8 (Base 50)    
Moisture  
Dew Point 58 °F    
Average Humidity 100    
Maximum Humidity 100    
Minimum Humidity 100    
Precipitation  
Precipitation 0.11 in - - ()
Sea Level Pressure  
Sea Level Pressure 30.23 in    
Wind  
Wind Speed 7 mph (East)    
Max Wind Speed 10 mph    
Max Gust Speed -    
Visibility 1 miles    
Events Fog , Rain    
Averages and records for this station are not official NWS values.
T = Trace of Precipitation, MM = Missing Value Source: NWS Daily Summary

Daily Weather History Graph

Daily Weather History Graph

Search for Another Location

Airport or City:

Trip Planner

Search our weather history database for the weather conditions in past years. The results will help you decide how hot, cold, wet, or windy it might be!

Date:

Astronomy

Aug. 24, 2014 Rise Set
Actual Time 6:42 AM EDT 8:00 PM EDT
Civil Twilight 6:14 AM EDT 8:27 PM EDT
Nautical Twilight 5:42 AM EDT 9:00 PM EDT
Astronomical Twilight 5:07 AM EDT 9:34 PM EDT
Moon 5:51 AM EDT (8/24) 7:18 PM EDT (8/24)
Length of Visible Light 14h 12m
Length of Day
13h 18m
Waning Crescent, 1% of the Moon is Illuminated
Aug 24
Waning Crescent
Aug 25
New
Sep 2
First Quarter
Sep 8
Full
Sep 15
Last Quarter

Hourly Weather History & Observations

Time (EDT) Temp. Dew Point Humidity Pressure Visibility Wind Dir Wind Speed Gust Speed Precip Events Conditions
12:15 AM 60.1 °F 60.1 °F 100% 30.19 in 0.2 mi East 10.4 mph - N/A Rain Rain
12:30 AM 59.9 °F 59.9 °F 100% 30.19 in 0.2 mi East 9.2 mph - N/A Rain Rain
12:55 AM 59.0 °F 59.0 °F 100% 30.19 in 0.2 mi East 10.4 mph - N/A Rain Rain
1:15 AM 59.0 °F 59.0 °F 100% 30.19 in 0.2 mi East 5.8 mph - N/A Rain Rain
1:35 AM 58.5 °F 58.5 °F 100% 30.19 in 0.2 mi East 6.9 mph - N/A Rain Rain
1:55 AM 58.3 °F 58.3 °F 100% 30.19 in 0.2 mi East 6.9 mph - 0.01 in Rain Rain
2:10 AM 58.3 °F 58.3 °F 100% 30.19 in 0.2 mi East 9.2 mph - 0.01 in Rain Rain
2:35 AM 58.3 °F 58.3 °F 100% 30.19 in 0.2 mi East 8.1 mph - 0.02 in Rain Rain
2:55 AM 58.3 °F 58.3 °F 100% 30.19 in 0.2 mi East 6.9 mph - 0.02 in Rain Rain
3:15 AM 58.1 °F 58.1 °F 100% 30.18 in 0.2 mi East 8.1 mph - N/A Rain Light Rain
3:35 AM 58.1 °F 58.1 °F 100% 30.18 in 0.2 mi East 6.9 mph - N/A Rain Light Rain
3:55 AM 58.1 °F 58.1 °F 100% 30.18 in 0.2 mi East 6.9 mph - 0.03 in Rain Rain
4:15 AM 58.1 °F 58.1 °F 100% 30.17 in 0.2 mi East 6.9 mph - 0.02 in Rain Rain
4:35 AM 58.1 °F 58.1 °F 100% 30.17 in 0.2 mi East 8.1 mph - 0.03 in Rain Rain
4:50 AM 58.1 °F 58.1 °F 100% 30.17 in 0.2 mi East 8.1 mph - 0.03 in Rain Rain
5:15 AM 58.1 °F 58.1 °F 100% 30.17 in 0.2 mi East 8.1 mph - N/A Rain Rain
5:35 AM 58.1 °F 58.1 °F 100% 30.17 in 0.2 mi East 8.1 mph - N/A Rain Rain
5:55 AM 58.1 °F 58.1 °F 100% 30.18 in 0.2 mi East 5.8 mph - N/A Rain Rain
6:15 AM 57.9 °F 57.9 °F 100% 30.18 in 0.2 mi East 8.1 mph - 0.01 in Rain Rain
6:30 AM 57.7 °F 57.7 °F 100% 30.18 in 0.2 mi East 8.1 mph - 0.02 in Rain Rain
7:15 AM 56.8 °F 56.8 °F 100% 30.20 in 0.2 mi East 8.1 mph - N/A Rain Rain
7:30 AM 56.7 °F 56.7 °F 100% 30.21 in 0.2 mi East 6.9 mph - N/A Rain Rain
7:55 AM 56.7 °F 56.7 °F 100% 30.22 in 0.2 mi East 6.9 mph - N/A Rain Rain
8:15 AM 56.7 °F 56.7 °F 100% 30.23 in 0.2 mi East 5.8 mph - N/A Rain Rain
8:35 AM 56.7 °F 56.7 °F 100% 30.23 in 0.2 mi East 5.8 mph - N/A Rain Rain
8:55 AM 56.5 °F 56.5 °F 100% 30.23 in 0.2 mi East 6.9 mph - N/A Rain Rain
9:15 AM 56.3 °F 56.3 °F 100% 30.23 in 0.2 mi East 5.8 mph - N/A Rain Rain
9:35 AM 56.3 °F 56.3 °F 100% 30.23 in 0.2 mi East 8.1 mph - N/A Rain Rain
9:55 AM 56.3 °F 56.3 °F 100% 30.24 in 0.2 mi East 6.9 mph - N/A Rain Light Rain
10:15 AM 56.5 °F 56.5 °F 100% 30.24 in 0.2 mi ENE 8.1 mph - N/A Rain Light Rain
10:35 AM 56.8 °F 56.8 °F 100% 30.24 in 0.2 mi East 6.9 mph - N/A Rain Rain
10:55 AM 56.7 °F 56.7 °F 100% 30.25 in 0.2 mi ENE 8.1 mph - N/A Rain Rain
11:15 AM 57.2 °F 57.2 °F 100% 30.25 in 0.2 mi ENE 6.9 mph - N/A Rain Rain
11:35 AM 57.2 °F 57.2 °F 100% 30.26 in 0.2 mi East 4.6 mph - N/A Rain Rain
11:55 AM 57.2 °F 57.2 °F 100% 30.26 in 0.2 mi East 6.9 mph - N/A Rain Light Rain
12:15 PM - - N/A% 30.26 in 0.2 mi East 4.6 mph - N/A Rain Rain
12:30 PM - - N/A% 30.26 in 0.2 mi East 4.6 mph - N/A Rain Light Rain
12:55 PM - - N/A% 30.26 in 0.2 mi East 5.8 mph - N/A Rain Light Rain
1:15 PM - - N/A% 30.26 in 0.2 mi East 5.8 mph - N/A Rain Rain
1:35 PM - - N/A% 30.26 in 0.2 mi ESE 6.9 mph - N/A Rain Rain
1:55 PM - - N/A% 30.26 in 0.2 mi ESE 6.9 mph - N/A Rain Rain
2:15 PM - - N/A% 30.26 in 0.2 mi East 5.8 mph - N/A Fog Fog
2:35 PM - - N/A% 30.25 in 0.2 mi East 4.6 mph - N/A Fog Fog
2:50 PM - - N/A% 30.25 in 0.5 mi East 3.5 mph - N/A Fog Fog
3:15 PM - - N/A% 30.24 in 0.2 mi East 5.8 mph - N/A Fog Fog
3:35 PM - - N/A% 30.24 in 0.2 mi NE 4.6 mph - N/A Fog Fog
3:55 PM - - N/A% 30.24 in 2.5 mi ENE 4.6 mph - N/A   Overcast
4:15 PM - - N/A% 30.24 in 7.0 mi East 4.6 mph - N/A   Overcast
4:35 PM - - N/A% 30.23 in 10.0 mi East 4.6 mph - N/A   Overcast
4:55 PM - - N/A% 30.23 in 7.0 mi East 3.5 mph - N/A   Overcast
5:15 PM - - N/A% 30.23 in 10.0 mi East 5.8 mph - N/A   Overcast
5:35 PM - - N/A% 30.23 in 4.0 mi East 4.6 mph - N/A   Haze
6:10 PM - - N/A% 30.23 in 10.0 mi East 5.8 mph - N/A   Overcast
6:35 PM - - N/A% 30.23 in 7.0 mi ESE 5.8 mph - N/A   Overcast
6:55 PM - - N/A% 30.23 in 7.0 mi ESE 4.6 mph - N/A   Overcast
7:20 PM - - N/A% 30.24 in 0.2 mi East 8.1 mph - N/A Fog Fog
7:35 PM - - N/A% 30.24 in 0.2 mi East 5.8 mph - N/A Fog Fog
7:55 PM - - N/A% 30.24 in 0.2 mi East 5.8 mph - N/A Fog Fog
8:15 PM - - N/A% 30.24 in 0.2 mi East 5.8 mph - N/A Fog Fog
8:35 PM - - N/A% 30.24 in 0.2 mi East 5.8 mph - N/A Fog Fog
8:55 PM - - N/A% 30.24 in 0.2 mi East 5.8 mph - N/A Fog Fog
9:15 PM - - N/A% 30.25 in 0.2 mi East 5.8 mph - N/A Fog Fog
9:35 PM - - N/A% 30.26 in 1.5 mi East 5.8 mph - N/A   Overcast
10:15 PM - - N/A% 30.27 in 0.2 mi East 5.8 mph - N/A Fog Fog
10:35 PM - - N/A% 30.26 in 1.0 mi East 4.6 mph - N/A   Overcast
10:55 PM - - N/A% 30.27 in 7.0 mi East 4.6 mph - N/A   Overcast
11:15 PM - - N/A% 30.27 in 5.0 mi East 5.8 mph - N/A   Haze
11:35 PM - - N/A% 30.27 in 4.0 mi East 5.8 mph - N/A   Haze
11:50 PM - - N/A% 30.27 in 1.0 mi East 5.8 mph - N/A   Overcast